FW2332 Weather Reports


time (UTC)temp
F
wind
direction
speed
knots
gust
knots
rain 1hr
in
rain 24hr
in
rain mn
in
humidity
%
barometer
mb
20260505065756 55 193 4.3 0.0 0.00 0.00 0.00 90 1012.6
20260505065556 55 181 5.2 0.0 0.00 0.00 0.00 89 1012.6
20260505065355 55 206 4.3 0.0 0.00 0.00 0.00 89 1012.7
20260505065154 55 217 1.7 0.0 0.00 0.00 0.00 89 1012.7
20260505064954 55 193 2.6 0.0 0.00 0.00 0.00 89 1012.5
20260505064804 56 218 2.6 0.0 0.00 0.00 0.00 89 1012.4
20260505064754 55 189 0.9 0.0 0.00 0.00 0.00 89 1012.6
20260505064403 56 210 0.9 0.0 0.00 0.00 0.00 88 1012.4
20260505064353 56 171 0.9 0.0 0.00 0.00 0.00 89 1012.4
20260505064206 56 194 2.6 0.0 0.00 0.00 0.00 88 1012.3
20260505064003 56 150 2.6 0.0 0.00 0.00 0.00 88 1012.3
20260505063550 56 194 2.6 0.0 0.00 0.00 0.00 88 1012.1
20260505063404 56 159 1.7 0.0 0.00 0.00 0.00 88 1012.4
20260505063350 56 172 1.7 0.0 0.00 0.00 0.00 88 1012.3
20260505062950 56 191 0.9 0.0 0.00 0.00 0.00 88 1012.3
20260505062750 56 183 0.9 0.0 0.00 0.00 0.00 88 1012.4
20260505062548 56 193 1.7 0.0 0.00 0.00 0.00 88 1012.2
20260505062349 56 180 4.3 0.0 0.00 0.00 0.00 87 1012.3
20260505062158 56 207 3.5 0.0 0.00 0.00 0.00 87 1012.2
20260505062148 56 208 5.2 0.0 0.00 0.00 0.00 87 1012.3
20260505061756 56 219 0.9 0.0 0.00 0.00 0.00 87 1012.3
20260505061748 56 177 0.9 0.0 0.00 0.00 0.00 87 1012.1
20260505061356 56 185 2.6 0.0 0.00 0.00 0.00 87 1012.1
20260505061347 56 190 0.9 0.0 0.00 0.00 0.00 87 1012.2
20260505061159 57 193 3.5 0.0 0.00 0.00 0.00 87 1012.1
20260505060746 56 187 0.9 0.0 0.00 0.00 0.00 87 1012.1
20260505060545 57 207 2.6 0.0 0.00 0.00 0.00 87 1012.0
20260505060357 57 183 1.7 0.0 0.00 0.00 0.00 87 1012.0
20260505060345 57 163 1.7 0.0 0.00 0.00 0.00 87 1012.0
20260505055945 57 145 1.7 0.0 0.00 0.00 0.00 87 1011.9
20260505055745 57 217 5.2 0.0 0.00 0.00 0.00 86 1012.0
20260505055544 57 204 0.9 0.0 0.00 0.00 0.00 86 1012.0
20260505055344 57 73 0.9 0.0 0.00 0.00 0.00 86 1011.8
20260505055144 57 158 1.7 0.0 0.00 0.00 0.00 86 1011.7
20260505054943 57 190 4.3 0.0 0.00 0.00 0.00 86 1011.8
20260505054743 57 197 1.7 0.0 0.00 0.00 0.00 86 1011.7
20260505054542 57 174 1.7 0.0 0.00 0.00 0.00 85 1011.7
20260505054342 57 179 1.7 0.0 0.00 0.00 0.00 85 1011.8
20260505054141 57 222 1.7 0.0 0.00 0.00 0.00 85 1011.6
20260505053941 58 200 0.0 0.0 0.00 0.00 0.00 85 1011.6
20260505053740 58 178 0.9 0.0 0.00 0.00 0.00 85 1011.7
20260505053541 58 185 0.9 0.0 0.00 0.00 0.00 85 1011.8
20260505053339 58 202 2.6 0.0 0.00 0.00 0.00 85 1011.8
20260505053138 58 154 0.9 0.0 0.00 0.00 0.00 85 1011.9
20260505052938 58 206 5.2 0.0 0.00 0.00 0.00 84 1011.6
20260505052738 58 212 1.7 0.0 0.00 0.00 0.00 84 1011.6
20260505052548 58 197 5.2 0.0 0.00 0.00 0.00 84 1011.7
20260505052537 58 188 1.7 0.0 0.00 0.00 0.00 84 1011.7
20260505052136 58 163 0.9 0.0 0.00 0.00 0.00 84 1011.7
20260505051735 59 177 0.9 0.0 0.00 0.00 0.00 83 1011.6
20260505051544 59 206 1.7 0.0 0.00 0.00 0.00 83 1011.7
20260505051535 59 181 0.0 0.0 0.00 0.00 0.00 83 1011.6
20260505051346 59 191 0.9 0.0 0.00 0.00 0.00 82 1011.6
20260505050934 59 195 1.7 0.0 0.00 0.00 0.00 82 1011.6
20260505050733 59 148 0.9 0.0 0.00 0.00 0.00 82 1011.7
20260505050532 59 158 0.9 0.0 0.00 0.00 0.00 81 1011.5
20260505050332 60 184 0.9 0.0 0.00 0.00 0.00 81 1011.5
20260505050131 60 177 0.9 0.0 0.00 0.00 0.00 81 1011.5
20260505041720 63 179 0.0 0.0 0.00 0.00 0.00 74 1011.2
20260505041520 64 126 1.7 0.0 0.00 0.00 0.00 74 1011.1
20260505040717 64 184 0.9 0.0 0.00 0.00 0.00 73 1010.9
20260505040531 65 180 0.9 0.0 0.00 0.00 0.00 72 1010.8
20260505040516 65 185 1.7 0.0 0.00 0.00 0.00 72 1010.9
20260505040116 65 189 0.9 0.0 0.00 0.00 0.00 72 1010.8
20260505035916 65 175 0.9 0.0 0.00 0.00 0.00 71 1010.9
20260505035515 66 186 0.0 0.0 0.00 0.00 0.00 71 1010.7
20260505035314 66 163 0.9 0.0 0.00 0.00 0.00 70 1010.8
20260505034913 66 177 1.7 0.0 0.00 0.00 0.00 69 1010.7
20260505034324 67 177 0.9 0.0 0.00 0.00 0.00 68 1010.6
20260505033911 68 222 0.9 0.0 0.00 0.00 0.00 67 1010.5
20260505033711 68 189 1.7 0.0 0.00 0.00 0.00 67 1010.5
20260505033510 68 200 0.9 0.0 0.00 0.00 0.00 66 1010.5
20260505033310 68 190 2.6 0.0 0.00 0.00 0.00 66 1010.5
20260505033110 68 208 3.5 0.0 0.00 0.00 0.00 66 1010.5
20260505032909 69 208 1.7 0.0 0.00 0.00 0.00 65 1010.5
20260505032709 69 186 0.0 0.0 0.00 0.00 0.00 66 1010.5
20260505032525 69 247 0.9 0.0 0.00 0.00 0.00 65 1010.5
20260505032307 69 210 0.9 0.0 0.00 0.00 0.00 65 1010.5
20260505032119 70 206 0.9 0.0 0.00 0.00 0.00 64 1010.3
20260505032107 69 207 0.9 0.0 0.00 0.00 0.00 65 1010.5
20260505031706 70 185 3.5 0.0 0.00 0.00 0.00 64 1010.3
20260505031305 70 188 2.6 0.0 0.00 0.00 0.00 63 1010.3
20260505031104 70 185 0.9 0.0 0.00 0.00 0.00 63 1010.1
20260505030917 71 169 1.7 0.0 0.00 0.00 0.00 62 1010.2
20260505030503 71 191 0.9 0.0 0.00 0.00 0.00 61 1010.2
20260505030302 71 131 1.7 0.0 0.00 0.00 0.00 62 1010.2
20260505025902 71 208 0.9 0.0 0.00 0.00 0.00 60 1010.1
20260505025701 72 187 0.9 0.0 0.00 0.00 0.00 60 1010.2
20260505025501 72 192 1.7 0.0 0.00 0.00 0.00 59 1010.0
20260505025301 72 188 0.9 0.0 0.00 0.00 0.00 59 1010.0
20260505025100 72 193 1.7 0.0 0.00 0.00 0.00 58 1010.0
20260505024913 73 198 1.7 0.0 0.00 0.00 0.00 57 1010.0
20260505024900 73 198 1.7 0.0 0.00 0.00 0.00 58 1010.0
20260505024058 73 254 0.9 0.0 0.00 0.00 0.00 56 1010.0
20260505023858 74 4 0.9 0.0 0.00 0.00 0.00 54 1010.0
20260505023658 74 220 0.9 0.0 0.00 0.00 0.00 55 1009.9
20260505023310 75 197 0.0 0.0 0.00 0.00 0.00 54 1010.0
20260505023257 74 350 0.9 0.0 0.00 0.00 0.00 55 1010.0
20260505022855 75 343 2.6 0.0 0.00 0.00 0.00 54 1009.9
20260505022654 75 354 0.9 0.0 0.00 0.00 0.00 54 1009.8
20260505022454 75 325 0.9 0.0 0.00 0.00 0.00 55 1009.9
20260505022252 75 196 0.9 0.0 0.00 0.00 0.00 53 1009.9
20260505022053 75 359 0.0 0.0 0.00 0.00 0.00 53 1009.8
20260505021851 75 209 0.9 0.0 0.00 0.00 0.00 53 1010.0
20260505021651 75 298 0.0 0.0 0.00 0.00 0.00 53 1009.9
20260505021451 75 209 0.9 0.0 0.00 0.00 0.00 54 1009.9
20260505021050 75 190 0.9 0.0 0.00 0.00 0.00 53 1009.9
20260505020850 75 209 0.9 0.0 0.00 0.00 0.00 52 1009.8
20260505020704 76 188 0.9 0.0 0.00 0.00 0.00 51 1009.7
20260505020049 76 235 0.9 0.0 0.00 0.00 0.00 50 1009.7
20260505015849 76 208 0.9 0.0 0.00 0.00 0.00 50 1009.7
20260505015259 76 277 0.0 0.0 0.00 0.00 0.00 51 1009.6
20260505014846 76 196 0.9 0.0 0.00 0.00 0.00 51 1009.6
20260505014646 76 235 0.9 0.0 0.00 0.00 0.00 50 1009.7
20260505014245 76 208 2.6 0.0 0.00 0.00 0.00 51 1009.7
20260505014057 77 192 2.6 0.0 0.00 0.00 0.00 50 1009.6
20260505014045 76 162 0.9 0.0 0.00 0.00 0.00 50 1009.6
20260505013657 77 207 1.7 0.0 0.00 0.00 0.00 49 1009.6
20260505013643 77 180 1.7 0.0 0.00 0.00 0.00 49 1009.6
20260505013256 77 181 0.9 0.0 0.00 0.00 0.00 48 1009.7
20260505013243 77 172 4.3 0.0 0.00 0.00 0.00 48 1009.6
20260505012841 77 190 3.5 0.0 0.00 0.00 0.00 47 1009.6
20260505012652 77 206 1.7 0.0 0.00 0.00 0.00 48 1009.6
20260505012641 77 153 1.7 0.0 0.00 0.00 0.00 47 1009.6
20260505012240 77 201 3.5 0.0 0.00 0.00 0.00 47 1009.6
20260505012039 78 206 2.6 0.0 0.00 0.00 0.00 48 1009.6
20260505011638 78 190 1.7 0.0 0.00 0.00 0.00 48 1009.7
20260505011438 78 162 0.9 0.0 0.00 0.00 0.00 47 1009.5
20260505011237 78 192 0.9 0.0 0.00 0.00 0.00 47 1009.7
20260505011037 78 205 1.7 0.0 0.00 0.00 0.00 48 1009.7
20260505010837 78 247 1.7 0.0 0.00 0.00 0.00 47 1009.7
20260505010649 78 226 2.6 0.0 0.00 0.00 0.00 49 1009.7
20260505010236 78 219 0.9 0.0 0.00 0.00 0.00 48 1009.7
20260505010036 78 178 2.6 0.0 0.00 0.00 0.00 49 1009.9
20260505005834 78 195 0.9 0.0 0.00 0.00 0.00 47 1009.9
20260505005634 78 171 3.5 0.0 0.00 0.00 0.00 46 1009.9
20260505005447 78 299 2.6 0.0 0.00 0.00 0.00 48 1009.8
20260505005434 78 247 0.9 0.0 0.00 0.00 0.00 46 1009.9
20260505004834 78 171 1.7 0.0 0.00 0.00 0.00 49 1009.8
20260505004646 78 178 0.0 0.0 0.00 0.00 0.00 49 1009.8
20260505004633 78 201 1.7 0.0 0.00 0.00 0.00 50 1009.8
20260505004443 78 192 3.5 0.0 0.00 0.00 0.00 49 1009.8
20260505004032 78 187 0.9 0.0 0.00 0.00 0.00 49 1009.8
20260505003845 78 114 0.9 0.0 0.00 0.00 0.00 48 1009.9
20260505003831 78 196 0.9 0.0 0.00 0.00 0.00 49 1009.7
20260505003030 79 173 0.9 0.0 0.00 0.00 0.00 48 1009.7
20260505002830 79 192 0.0 0.0 0.00 0.00 0.00 48 1009.7
20260505002630 79 193 0.9 0.0 0.00 0.00 0.00 47 1009.7
20260505002429 79 150 0.0 0.0 0.00 0.00 0.00 46 1009.7
20260505002029 79 147 2.6 0.0 0.00 0.00 0.00 46 1009.7
20260505001838 79 152 0.9 0.0 0.00 0.00 0.00 47 1009.7
20260505001646 79 224 0.9 0.0 0.00 0.00 0.00 45 1009.9
20260505001447 79 183 0.9 0.0 0.00 0.00 0.00 47 1009.7
20260505001252 79 188 0.9 0.0 0.00 0.00 0.00 46 1009.8
20260505001108 80 232 0.9 0.0 0.00 0.00 0.00 47 1009.8
20260505001053 80 95 0.9 0.0 0.00 0.00 0.00 45 1009.7
20260505000625 80 125 0.9 0.0 0.00 0.00 0.00 47 1009.9
20260505000425 79 196 2.6 0.0 0.00 0.00 0.00 46 1009.9
20260505000024 80 188 0.9 0.0 0.00 0.00 0.00 45 1010.0
20260504235823 80 175 5.2 0.0 0.00 0.00 0.00 44 1009.8
20260504235623 80 177 0.9 0.0 0.00 0.00 0.00 45 1009.7
20260504235433 80 141 2.6 0.0 0.00 0.00 0.00 44 1009.8
20260504235422 80 215 1.7 0.0 0.00 0.00 0.00 45 1009.7
20260504235230 81 207 1.7 0.0 0.00 0.00 0.00 45 1009.7
20260504234830 81 258 0.0 0.0 0.00 0.00 0.00 44 1009.8
20260504234420 81 130 1.7 0.0 0.00 0.00 0.00 42 1009.7
20260504234219 81 97 0.9 0.0 0.00 0.00 0.00 44 1009.7
20260504234020 81 176 0.9 0.0 0.00 0.00 0.00 42 1009.7
20260504233818 81 101 0.9 0.0 0.00 0.00 0.00 43 1009.7
20260504233618 82 193 3.5 0.0 0.00 0.00 0.00 41 1009.7
20260504233417 82 188 1.7 0.0 0.00 0.00 0.00 42 1009.8
20260504233216 83 213 3.5 0.0 0.00 0.00 0.00 41 1009.8
20260504232815 84 203 2.6 0.0 0.00 0.00 0.00 39 1009.7
20260504232615 85 214 1.7 0.0 0.00 0.00 0.00 37 1009.8
20260504232414 85 220 1.7 0.0 0.00 0.00 0.00 38 1009.7
20260504232213 85 237 0.9 0.0 0.00 0.00 0.00 39 1009.6
20260504231813 85 39 1.7 0.0 0.00 0.00 0.00 40 1009.7
20260504231411 84 316 0.9 0.0 0.00 0.00 0.00 40 1009.8
20260504231212 84 241 1.7 0.0 0.00 0.00 0.00 43 1009.9
20260504231011 83 181 4.3 0.0 0.00 0.00 0.00 42 1009.9
20260504230811 83 219 2.6 0.0 0.00 0.00 0.00 42 1009.8
20260504230611 83 205 2.6 0.0 0.00 0.00 0.00 42 1009.8
20260504230411 84 167 4.3 0.0 0.00 0.00 0.00 40 1009.9
20260504230210 84 183 0.9 0.0 0.00 0.00 0.00 39 1009.9
20260504230010 85 239 0.9 0.0 0.00 0.00 0.00 39 1009.9
20260504225808 84 342 2.6 0.0 0.00 0.00 0.00 41 1010.0
20260504225607 83 325 1.7 0.0 0.00 0.00 0.00 41 1010.1
20260504225207 83 221 0.9 0.0 0.00 0.00 0.00 41 1010.0
20260504224807 83 193 2.6 0.0 0.00 0.00 0.00 41 1010.1
20260504224606 83 196 6.1 0.0 0.00 0.00 0.00 42 1010.1
20260504224405 82 346 0.9 0.0 0.00 0.00 0.00 43 1010.1
20260504224205 82 239 1.7 0.0 0.00 0.00 0.00 43 1010.2
20260504223804 83 208 3.5 0.0 0.00 0.00 0.00 42 1010.1
20260504223603 82 181 1.7 0.0 0.00 0.00 0.00 42 1010.3
20260504223403 83 181 2.6 0.0 0.00 0.00 0.00 40 1010.2
20260504223202 84 134 0.9 0.0 0.00 0.00 0.00 40 1010.3
20260504223002 84 252 0.9 0.0 0.00 0.00 0.00 40 1010.2
20260504222802 83 189 2.6 0.0 0.00 0.00 0.00 41 1010.4
20260504222600 84 206 1.7 0.0 0.00 0.00 0.00 40 1010.4
20260504222400 85 223 3.5 0.0 0.00 0.00 0.00 40 1010.4
20260504222200 84 252 0.9 0.0 0.00 0.00 0.00 40 1010.4
20260504221759 82 178 3.5 0.0 0.00 0.00 0.00 43 1010.4
20260504221559 82 218 2.6 0.0 0.00 0.00 0.00 42 1010.4
20260504221411 82 173 2.6 0.0 0.00 0.00 0.00 42 1010.6
20260504221359 82 204 0.9 0.0 0.00 0.00 0.00 41 1010.5
20260504220958 83 157 2.6 0.0 0.00 0.00 0.00 40 1010.5
20260504220808 86 200 3.5 0.0 0.00 0.00 0.00 37 1010.4
20260504220358 87 212 2.6 0.0 0.00 0.00 0.00 38 1010.5
20260504220157 87 110 0.9 0.0 0.00 0.00 0.00 39 1010.5
20260504215957 84 35 2.6 0.0 0.00 0.00 0.00 41 1010.6
20260504215757 84 207 2.6 0.0 0.00 0.00 0.00 41 1010.5
20260504215555 83 204 0.9 0.0 0.00 0.00 0.00 42 1010.6
20260504215355 83 195 0.9 0.0 0.00 0.00 0.00 44 1010.6
20260504215154 83 239 2.6 0.0 0.00 0.00 0.00 42 1010.6
20260504215002 82 199 0.9 0.0 0.00 0.00 0.00 43 1010.7
20260504214953 83 156 0.0 0.0 0.00 0.00 0.00 41 1010.6
20260504214552 82 141 0.9 0.0 0.00 0.00 0.00 44 1010.8
20260504214352 82 195 1.7 0.0 0.00 0.00 0.00 45 1010.8
20260504214151 81 144 0.0 0.0 0.00 0.00 0.00 46 1010.8
20260504214004 81 184 2.6 0.0 0.00 0.00 0.00 43 1010.8
20260504213951 81 114 0.9 0.0 0.00 0.00 0.00 44 1010.8
20260504213800 81 199 4.3 0.0 0.00 0.00 0.00 45 1010.8
20260504213350 81 123 0.9 0.0 0.00 0.00 0.00 45 1010.8
20260504213150 81 199 4.3 0.0 0.00 0.00 0.00 45 1010.9
20260504212948 82 144 0.9 0.0 0.00 0.00 0.00 46 1010.9
20260504212748 81 173 1.7 0.0 0.00 0.00 0.00 44 1010.9
20260504212559 79 160 0.9 0.0 0.00 0.00 0.00 47 1010.9
20260504212401 80 177 0.9 0.0 0.00 0.00 0.00 45 1011.0
20260504211947 81 199 0.0 0.0 0.00 0.00 0.00 46 1010.8
20260504211746 81 180 1.7 0.0 0.00 0.00 0.00 45 1010.8
20260504211546 80 193 2.6 0.0 0.00 0.00 0.00 48 1010.8
20260504211346 80 137 0.9 0.0 0.00 0.00 0.00 47 1010.8
20260504211145 81 170 0.9 0.0 0.00 0.00 0.00 45 1010.8
20260504210956 80 225 1.7 0.0 0.00 0.00 0.00 44 1010.8
20260504210944 80 68 0.9 0.0 0.00 0.00 0.00 47 1010.8
20260504210555 79 148 0.0 0.0 0.00 0.00 0.00 49 1010.9
20260504210143 79 185 1.7 0.0 0.00 0.00 0.00 50 1010.9
20260504205942 79 90 0.9 0.0 0.00 0.00 0.00 50 1011.0
20260504205741 79 208 2.6 0.0 0.00 0.00 0.00 49 1011.1
20260504205540 79 145 1.7 0.0 0.00 0.00 0.00 49 1011.1
20260504205139 78 176 0.0 0.0 0.00 0.00 0.00 50 1011.1
20260504204938 79 196 4.3 0.0 0.00 0.00 0.00 49 1011.1
20260504204737 79 231 2.6 0.0 0.00 0.00 0.00 53 1011.2
20260504204536 79 133 1.7 0.0 0.00 0.00 0.00 51 1011.0
20260504204335 79 197 3.5 0.0 0.00 0.00 0.00 49 1011.1
20260504204135 78 146 1.7 0.0 0.00 0.00 0.00 51 1011.2
20260504203935 78 175 0.9 0.0 0.00 0.00 0.00 51 1011.2
20260504203734 78 125 0.9 0.0 0.00 0.00 0.00 52 1011.0
20260504203534 78 194 2.6 0.0 0.00 0.00 0.00 52 1011.1
20260504203334 78 210 3.5 0.0 0.00 0.00 0.00 53 1011.1
20260504203134 78 147 0.0 0.0 0.00 0.00 0.00 51 1011.0
20260504202934 77 180 1.7 0.0 0.00 0.00 0.00 52 1011.2
20260504202747 77 123 0.9 0.0 0.00 0.00 0.00 52 1011.2
20260504202333 76 199 2.6 0.0 0.00 0.00 0.00 53 1011.0
20260504202132 77 199 6.1 0.0 0.00 0.00 0.00 51 1011.1
20260504201931 76 212 0.0 0.0 0.00 0.00 0.00 54 1011.1
20260504201731 76 167 1.7 0.0 0.00 0.00 0.00 53 1011.1
20260504201531 76 166 2.6 0.0 0.00 0.00 0.00 52 1011.1
20260504201331 77 171 3.5 0.0 0.00 0.00 0.00 52 1011.0
20260504201130 77 218 1.7 0.0 0.00 0.00 0.00 52 1010.9
20260504200930 77 184 2.6 0.0 0.00 0.00 0.00 51 1010.9
20260504200729 77 134 0.9 0.0 0.00 0.00 0.00 52 1010.9
20260504200541 78 212 1.7 0.0 0.00 0.00 0.00 52 1010.9
20260504200530 78 182 0.9 0.0 0.00 0.00 0.00 52 1010.9
20260504200129 78 151 0.9 0.0 0.00 0.00 0.00 52 1010.9
20260504195928 78 153 0.9 0.0 0.00 0.00 0.00 52 1010.9
20260504195527 76 170 0.9 0.0 0.00 0.00 0.00 53 1011.1
20260504195326 76 190 3.5 0.0 0.00 0.00 0.00 53 1011.2
20260504195127 76 172 0.0 0.0 0.00 0.00 0.00 54 1011.1
20260504194927 75 225 2.6 0.0 0.00 0.00 0.00 56 1011.1
20260504194726 75 139 0.9 0.0 0.00 0.00 0.00 54 1011.0
20260504194526 76 186 1.7 0.0 0.00 0.00 0.00 53 1011.0
20260504194123 76 208 5.2 0.0 0.00 0.00 0.00 54 1011.0
20260504193923 76 202 1.7 0.0 0.00 0.00 0.00 53 1011.0
20260504193522 76 151 0.9 0.0 0.00 0.00 0.00 54 1011.2
20260504193322 76 156 1.7 0.0 0.00 0.00 0.00 55 1011.2
20260504193120 75 195 2.6 0.0 0.00 0.00 0.00 54 1011.2
20260504192920 75 193 4.3 0.0 0.00 0.00 0.00 55 1011.2
20260504192733 75 206 1.7 0.0 0.00 0.00 0.00 55 1011.3
20260504192319 75 198 5.2 0.0 0.00 0.00 0.00 53 1011.3
20260504192128 74 182 2.6 0.0 0.00 0.00 0.00 55 1011.6
20260504192118 74 201 3.5 0.0 0.00 0.00 0.00 57 1011.3
20260504191728 74 223 5.2 0.0 0.00 0.00 0.00 55 1011.3
20260504191328 73 168 0.9 0.0 0.00 0.00 0.00 56 1011.5
20260504191317 74 193 1.7 0.0 0.00 0.00 0.00 55 1011.4
20260504190927 72 252 0.9 0.0 0.00 0.00 0.00 59 1011.5
20260504190915 73 197 3.5 0.0 0.00 0.00 0.00 56 1011.6
20260504190526 73 127 0.9 0.0 0.00 0.00 0.00 57 1011.6
20260504190513 72 143 0.9 0.0 0.00 0.00 0.00 57 1011.6
20260504190113 72 155 1.7 0.0 0.00 0.00 0.00 59 1011.6
20260504185912 72 180 0.9 0.0 0.00 0.00 0.00 56 1011.7
20260504185713 73 154 0.9 0.0 0.00 0.00 0.00 55 1011.6
20260504185522 74 183 1.7 0.0 0.00 0.00 0.00 55 1011.6
20260504185512 73 235 1.7 0.0 0.00 0.00 0.00 55 1011.5
20260504185110 74 114 0.9 0.0 0.00 0.00 0.00 56 1011.5
20260504184910 74 237 3.5 0.0 0.00 0.00 0.00 54 1011.5
20260504184709 73 229 2.6 0.0 0.00 0.00 0.00 56 1011.6
20260504184518 73 202 3.5 0.0 0.00 0.00 0.00 54 1011.5
20260504184508 73 184 4.3 0.0 0.00 0.00 0.00 56 1011.6
20260504184108 73 201 1.7 0.0 0.00 0.00 0.00 55 1011.7
20260504183919 72 179 3.5 0.0 0.00 0.00 0.00 55 1011.6
20260504183908 72 197 1.7 0.0 0.00 0.00 0.00 56 1011.6
20260504183506 72 164 0.9 0.0 0.00 0.00 0.00 55 1011.6
20260504183306 71 200 1.7 0.0 0.00 0.00 0.00 56 1011.6
20260504183118 72 136 0.0 0.0 0.00 0.00 0.00 55 1011.6
20260504183105 72 200 3.5 0.0 0.00 0.00 0.00 55 1011.6
20260504182718 72 186 0.9 0.0 0.00 0.00 0.00 57 1011.6
20260504182705 72 184 0.9 0.0 0.00 0.00 0.00 54 1011.6
20260504182515 72 167 2.6 0.0 0.00 0.00 0.00 55 1011.5
20260504182114 72 214 3.5 0.0 0.00 0.00 0.00 55 1011.6
20260504182103 72 196 5.2 0.0 0.00 0.00 0.00 54 1011.6
20260504181702 72 126 0.9 0.0 0.00 0.00 0.00 54 1011.6
20260504181501 72 153 0.9 0.0 0.00 0.00 0.00 55 1011.8
20260504181302 72 173 3.5 0.0 0.00 0.00 0.00 55 1011.7
20260504181102 72 184 1.7 0.0 0.00 0.00 0.00 55 1011.7
20260504180902 72 198 2.6 0.0 0.00 0.00 0.00 54 1011.7
20260504180700 72 192 0.9 0.0 0.00 0.00 0.00 57 1011.7
20260504180511 71 171 0.9 0.0 0.00 0.00 0.00 56 1011.7
20260504180501 71 156 0.9 0.0 0.00 0.00 0.00 55 1011.7
20260504180111 71 169 3.5 0.0 0.00 0.00 0.00 54 1011.6
20260504180059 71 198 0.9 0.0 0.00 0.00 0.00 54 1011.7
20260504175907 71 153 1.7 0.0 0.00 0.00 0.00 53 1011.7
20260504175457 71 179 1.7 0.0 0.00 0.00 0.00 54 1011.7
20260504175257 71 204 0.9 0.0 0.00 0.00 0.00 56 1011.8
20260504174855 70 184 1.7 0.0 0.00 0.00 0.00 55 1011.8
20260504174655 70 121 0.9 0.0 0.00 0.00 0.00 56 1011.7
20260504174254 70 209 1.7 0.0 0.00 0.00 0.00 56 1011.7
20260504174055 70 183 0.9 0.0 0.00 0.00 0.00 58 1011.7
20260504173854 69 167 0.9 0.0 0.00 0.00 0.00 57 1011.7
20260504173655 69 190 0.9 0.0 0.00 0.00 0.00 56 1011.8
20260504173454 69 205 3.5 0.0 0.00 0.00 0.00 56 1011.8
20260504173306 69 220 0.9 0.0 0.00 0.00 0.00 58 1011.9
20260504173253 69 216 2.6 0.0 0.00 0.00 0.00 57 1011.9
20260504172651 68 175 1.7 0.0 0.00 0.00 0.00 57 1011.9
20260504172505 68 152 0.0 0.0 0.00 0.00 0.00 57 1011.8
20260504172451 68 187 0.9 0.0 0.00 0.00 0.00 55 1011.8
20260504172303 68 190 2.6 0.0 0.00 0.00 0.00 55 1011.8
20260504171649 68 171 0.9 0.0 0.00 0.00 0.00 56 1011.8
20260504171248 68 124 0.0 0.0 0.00 0.00 0.00 55 1011.9
20260504171047 68 126 0.0 0.0 0.00 0.00 0.00 55 1011.8
20260504170847 68 169 1.7 0.0 0.00 0.00 0.00 55 1011.7
20260504170646 67 165 0.9 0.0 0.00 0.00 0.00 55 1011.7
20260504170446 67 193 2.6 0.0 0.00 0.00 0.00 55 1011.7
20260504170259 67 193 2.6 0.0 0.00 0.00 0.00 54 1011.7
20260504170245 67 216 3.5 0.0 0.00 0.00 0.00 56 1011.6
20260504160435 63 193 1.7 0.0 0.00 0.00 0.00 62 1011.4
20260504160234 63 179 0.9 0.0 0.00 0.00 0.00 64 1011.5
20260504151023 58 187 0.9 0.0 0.00 0.00 0.00 81 1011.2
20260504141004 53 201 0.9 0.0 0.00 0.00 0.00 84 1010.7
20260504130545 52 236 0.0 0.0 0.00 0.00 0.00 81 1010.7
20260504120128 52 203 0.9 0.0 0.00 0.00 0.00 82 1010.4
20260504110512 54 354 0.9 0.0 0.00 0.00 0.00 78 1010.5
20260504110323 54 357 0.9 0.0 0.00 0.00 0.00 77 1010.3
20260504110312 54 357 0.9 0.0 0.00 0.00 0.00 78 1010.4
20260504100454 55 343 0.9 0.0 0.00 0.00 0.00 72 1010.3
20260504100253 55 342 0.0 0.0 0.00 0.00 0.00 71 1010.3
20260504081233 60 208 0.0 0.0 0.00 0.00 0.00 58 1010.2